| time (UTC) | temp F | wind direction | speed MPH | gust MPH | rain 1hr in | rain 24hr in | rain mn in | humidity % | barometer mb |
| 20260905131554 | 63 | 175 | 0.0 | 0.0 | 0.00 | 0.00 | 0.00 | 92 | 1013.7 |
| 20260905130050 | 62 | 175 | 0.0 | 0.0 | 0.00 | 0.00 | 0.00 | 92 | 1013.7 |
| 20260905124550 | 61 | 175 | 0.0 | 0.0 | 0.00 | 0.00 | 0.00 | 92 | 1014.0 |
| 20260905123059 | 60 | 175 | 0.0 | 0.0 | 0.00 | 0.00 | 0.00 | 92 | 1014.3 |
| 20260905121553 | 59 | 175 | 0.0 | 0.0 | 0.00 | 0.00 | 0.00 | 91 | 1014.3 |
| 20260905120046 | 59 | 175 | 0.0 | 0.0 | 0.00 | 0.00 | 0.00 | 91 | 1014.1 |
| 20260905114544 | 58 | 175 | 0.0 | 0.0 | 0.00 | 0.00 | 0.00 | 91 | 1013.6 |
| 20260905113042 | 57 | 175 | 0.0 | 0.0 | 0.00 | 0.00 | 0.00 | 91 | 1013.5 |
| 20260905111542 | 57 | 175 | 0.0 | 0.0 | 0.00 | 0.00 | 0.00 | 90 | 1013.4 |
| 20260905110041 | 57 | 175 | 0.0 | 0.0 | 0.00 | 0.00 | 0.00 | 90 | 1013.4 |
| 20260905104544 | 57 | 175 | 0.0 | 0.0 | 0.00 | 0.00 | 0.00 | 90 | 1013.1 |
| 20260905103039 | 57 | 175 | 0.0 | 0.0 | 0.00 | 0.00 | 0.00 | 90 | 1012.8 |
| 20260905101547 | 57 | 175 | 0.0 | 0.0 | 0.00 | 0.00 | 0.00 | 90 | 1012.6 |
| 20260905100111 | 57 | 175 | 0.0 | 0.0 | 0.00 | 0.00 | 0.00 | 90 | 1012.5 |
| 20260905094546 | 57 | 175 | 0.0 | 0.0 | 0.00 | 0.00 | 0.00 | 90 | 1012.5 |
| 20260905093035 | 57 | 175 | 0.0 | 0.0 | 0.00 | 0.00 | 0.00 | 90 | 1012.4 |
| 20260905091540 | 58 | 175 | 0.0 | 0.0 | 0.00 | 0.00 | 0.00 | 90 | 1012.3 |
| 20260905090032 | 58 | 175 | 0.0 | 0.0 | 0.00 | 0.00 | 0.00 | 90 | 1012.4 |
| 20260905084535 | 58 | 175 | 0.0 | 0.0 | 0.00 | 0.00 | 0.00 | 90 | 1012.4 |
| 20260905083031 | 58 | 175 | 0.0 | 0.0 | 0.00 | 0.00 | 0.00 | 90 | 1012.4 |
| 20260905080027 | 59 | 175 | 0.0 | 0.0 | 0.00 | 0.00 | 0.00 | 90 | 1012.5 |
| 20260905074528 | 59 | 175 | 0.0 | 0.0 | 0.00 | 0.00 | 0.00 | 89 | 1012.5 |
| 20260905073023 | 60 | 175 | 0.0 | 0.0 | 0.00 | 0.00 | 0.00 | 89 | 1012.5 |
| 20260905071521 | 60 | 175 | 0.0 | 0.0 | 0.00 | 0.00 | 0.00 | 89 | 1012.6 |
| 20260905070020 | 60 | 175 | 0.0 | 0.0 | 0.00 | 0.00 | 0.00 | 89 | 1012.8 |
| 20260905064518 | 61 | 175 | 0.0 | 0.0 | 0.00 | 0.00 | 0.00 | 88 | 1012.9 |
| 20260905063015 | 61 | 175 | 0.0 | 0.0 | 0.00 | 0.00 | 0.00 | 87 | 1012.9 |
| 20260905061512 | 62 | 175 | 0.0 | 0.0 | 0.00 | 0.00 | 0.00 | 87 | 1013.0 |
| 20260905060009 | 63 | 175 | 0.0 | 0.0 | 0.00 | 0.00 | 0.00 | 86 | 1013.1 |
| 20260905054521 | 63 | 175 | 0.0 | 0.0 | 0.00 | 0.00 | 0.00 | 86 | 1013.2 |
| 20260905053006 | 64 | 175 | 0.0 | 0.0 | 0.00 | 0.00 | 0.00 | 86 | 1013.2 |
| 20260905051508 | 64 | 175 | 0.0 | 0.0 | 0.00 | 0.00 | 0.00 | 85 | 1013.3 |
| 20260905050001 | 64 | 175 | 0.0 | 0.0 | 0.00 | 0.00 | 0.00 | 85 | 1013.4 |
| 20260905044608 | 65 | 175 | 0.0 | 0.0 | 0.00 | 0.07 | 0.00 | 85 | 1013.4 |
| 20260905043103 | 66 | 175 | 0.0 | 0.0 | 0.00 | 0.07 | 0.00 | 85 | 1013.4 |
| 20260905041555 | 67 | 175 | 0.0 | 0.0 | 0.00 | 0.07 | 0.00 | 85 | 1013.4 |
| 20260905040105 | 67 | 175 | 0.0 | 0.0 | 0.00 | 0.07 | 0.00 | 85 | 1013.3 |
| 20260905034601 | 68 | 175 | 0.0 | 0.0 | 0.00 | 0.87 | 0.07 | 85 | 1013.2 |
| 20260905033052 | 68 | 175 | 0.0 | 0.0 | 0.00 | 0.87 | 0.07 | 85 | 1013.2 |
| 20260905031551 | 68 | 175 | 0.0 | 0.0 | 0.00 | 0.87 | 0.07 | 83 | 1013.0 |
| 20260905030050 | 69 | 175 | 0.0 | 0.0 | 0.00 | 0.87 | 0.07 | 83 | 1013.1 |
| 20260905024558 | 70 | 175 | 0.0 | 0.0 | 0.00 | 0.87 | 0.07 | 83 | 1013.0 |
| 20260905023050 | 70 | 175 | 0.0 | 0.0 | 0.00 | 0.87 | 0.07 | 83 | 1013.0 |
| 20260905021550 | 70 | 175 | 0.0 | 0.0 | 0.00 | 0.87 | 0.07 | 83 | 1013.2 |
| 20260905020054 | 70 | 175 | 0.0 | 0.0 | 0.00 | 0.87 | 0.07 | 82 | 1013.3 |
| 20260905014548 | 70 | 175 | 0.0 | 0.0 | 0.00 | 0.87 | 0.07 | 82 | 1013.3 |
| 20260905013049 | 71 | 175 | 0.0 | 0.0 | 0.00 | 0.87 | 0.07 | 81 | 1013.4 |
| 20260905011552 | 71 | 175 | 0.0 | 0.0 | 0.00 | 0.87 | 0.07 | 80 | 1013.3 |
| 20260905010146 | 71 | 175 | 0.0 | 0.0 | 0.00 | 0.87 | 0.07 | 79 | 1013.3 |
| 20260905004547 | 72 | 175 | 0.0 | 0.0 | 0.00 | 0.87 | 0.07 | 78 | 1013.1 |
| 20260905003047 | 72 | 175 | 0.0 | 0.0 | 0.00 | 0.87 | 0.07 | 77 | 1012.9 |
| 20260905001546 | 73 | 175 | 0.0 | 0.0 | 0.00 | 0.87 | 0.07 | 76 | 1012.9 |
| 20260905000046 | 74 | 175 | 0.0 | 0.0 | 0.00 | 0.87 | 0.07 | 75 | 1012.7 |
| 20260904234547 | 74 | 175 | 0.0 | 0.0 | 0.00 | 0.87 | 0.07 | 74 | 1012.7 |
| 20260904233045 | 75 | 175 | 0.0 | 0.0 | 0.00 | 0.87 | 0.07 | 72 | 1012.6 |
| 20260904231559 | 76 | 175 | 0.0 | 0.0 | 0.00 | 0.87 | 0.07 | 71 | 1012.6 |
| 20260904230044 | 77 | 175 | 0.0 | 2.0 | 0.00 | 0.87 | 0.07 | 69 | 1012.4 |
| 20260904224543 | 77 | 175 | 0.0 | 0.0 | 0.00 | 0.87 | 0.07 | 69 | 1012.4 |
| 20260904223043 | 77 | 175 | 0.0 | 2.0 | 0.00 | 0.87 | 0.07 | 67 | 1012.5 |
| 20260904221547 | 77 | 175 | 0.0 | 5.0 | 0.00 | 0.87 | 0.07 | 64 | 1012.4 |
| 20260904220042 | 78 | 271 | 3.0 | 6.0 | 0.00 | 0.87 | 0.07 | 60 | 1012.3 |
| 20260904214540 | 79 | 247 | 3.0 | 8.0 | 0.00 | 0.87 | 0.07 | 58 | 1012.2 |
| 20260904213044 | 79 | 293 | 3.0 | 7.0 | 0.00 | 0.87 | 0.07 | 59 | 1012.2 |
| 20260904211540 | 79 | 283 | 1.0 | 5.0 | 0.00 | 0.87 | 0.07 | 60 | 1012.4 |
| 20260904210039 | 80 | 280 | 4.0 | 8.0 | 0.00 | 0.87 | 0.07 | 57 | 1012.5 |
| 20260904204539 | 81 | 23 | 0.0 | 4.0 | 0.00 | 0.87 | 0.07 | 57 | 1012.6 |
| 20260904203050 | 80 | 50 | 1.0 | 8.0 | 0.00 | 0.87 | 0.07 | 57 | 1012.7 |
| 20260904201542 | 79 | 271 | 0.0 | 7.0 | 0.00 | 0.87 | 0.07 | 59 | 1012.7 |
| 20260904200055 | 80 | 277 | 1.0 | 6.0 | 0.00 | 0.87 | 0.07 | 57 | 1013.1 |
| 20260904194540 | 81 | 24 | 1.0 | 5.0 | 0.00 | 0.87 | 0.07 | 57 | 1013.1 |
| 20260904193140 | 82 | 347 | 2.0 | 9.0 | 0.00 | 0.87 | 0.07 | 55 | 1013.2 |
| 20260904191536 | 81 | 350 | 5.0 | 11.0 | 0.00 | 0.87 | 0.07 | 54 | 1013.3 |
| 20260904190030 | 80 | 288 | 3.0 | 11.0 | 0.00 | 0.87 | 0.07 | 55 | 1013.2 |
| 20260904183030 | 80 | 279 | 6.0 | 13.0 | 0.00 | 0.87 | 0.07 | 53 | 1013.5 |
| 20260904181529 | 80 | 290 | 7.0 | 11.0 | 0.00 | 0.87 | 0.07 | 55 | 1013.6 |
| 20260904180037 | 80 | 360 | 2.0 | 8.0 | 0.00 | 0.87 | 0.07 | 58 | 1013.8 |
| 20260904174523 | 79 | 272 | 3.0 | 10.0 | 0.00 | 0.87 | 0.07 | 59 | 1014.0 |
| 20260904173020 | 78 | 15 | 3.0 | 9.0 | 0.00 | 0.87 | 0.07 | 62 | 1013.9 |
| 20260904171521 | 77 | 259 | 4.0 | 10.0 | 0.00 | 0.87 | 0.07 | 62 | 1014.1 |
| 20260904170019 | 77 | 275 | 1.0 | 9.0 | 0.00 | 0.87 | 0.07 | 65 | 1014.2 |
| 20260904164520 | 77 | 15 | 3.0 | 10.0 | 0.00 | 0.87 | 0.07 | 64 | 1014.1 |
| 20260904163018 | 77 | 300 | 2.0 | 5.0 | 0.00 | 0.87 | 0.07 | 66 | 1014.1 |
| 20260904161512 | 75 | 275 | 4.0 | 12.0 | 0.00 | 0.87 | 0.07 | 68 | 1014.2 |
| 20260904160010 | 75 | 281 | 3.0 | 9.0 | 0.00 | 0.87 | 0.07 | 69 | 1014.3 |
| 20260904154510 | 74 | 267 | 3.0 | 9.0 | 0.00 | 0.87 | 0.07 | 72 | 1014.2 |
| 20260904153107 | 74 | 249 | 2.0 | 7.0 | 0.00 | 0.87 | 0.07 | 73 | 1014.3 |
| 20260904151504 | 74 | 240 | 2.0 | 8.0 | 0.00 | 0.87 | 0.07 | 73 | 1014.3 |
| 20260904150004 | 73 | 284 | 0.0 | 0.0 | 0.00 | 0.87 | 0.07 | 73 | 1014.4 |
| 20260904144502 | 74 | 286 | 0.0 | 0.0 | 0.00 | 0.87 | 0.07 | 74 | 1014.4 |
| 20260904143101 | 72 | 41 | 0.0 | 0.0 | 0.00 | 0.87 | 0.07 | 76 | 1014.2 |
| 20260904141602 | 71 | 303 | 0.0 | 0.0 | 0.00 | 0.87 | 0.07 | 78 | 1014.4 |
| 20260904140107 | 70 | 273 | 0.0 | 0.0 | 0.00 | 0.87 | 0.07 | 84 | 1014.5 |
| 20260904134612 | 69 | 52 | 0.0 | 0.0 | 0.00 | 0.87 | 0.07 | 88 | 1014.3 |
| 20260904133055 | 68 | 36 | 0.0 | 0.0 | 0.00 | 0.87 | 0.07 | 91 | 1014.3 |